Regional Weather Roundup
Issued by NWS Boston, MA

Home | Current Version | Previous Version | Text Only | Print | Product List | Glossary On
Versions: 1 2 3 4 5 6 7 8 9 10 11 12 13 14 15 16 17 18 19 20 21 22 23 24 25 26 27 28 29 30 31 32 33 34 35 36 37 38 39 40 41 42 43 44 45 46 47 48 49
000
ASUS41 KBOX 300810
RWRBOX

REGIONAL WEATHER ROUNDUP
NATIONAL WEATHER SERVICE TAUNTON MA
400 AM EDT SUN AUG 30 2015

NOTE:  "FAIR" INDICATES FEW OR NO CLOUDS BELOW 12,000 FEET WITH NO
SIGNIFICANT WEATHER AND/OR OBSTRUCTIONS TO VISIBILITY.  THE FOLLOWING
OBSERVATION LOCATIONS DO NOT REPORT PRESENT WEATHER...PROVINCETOWN...
SMITHFIELD...BLOCK ISLAND...KEENE...AND OXFORD.

MAZALL-300900-
EASTERN MASSACHUSETTS

CITY           SKY/WX    TMP DP  RH WIND       PRES   REMARKS
BOSTON         MOCLDY    70  60  70 SW13      30.06S
BEVERLY        PTCLDY    66  59  78 W6        30.05S
LAWRENCE       PTCLDY    64  58  80 S3        30.08S
BEDFORD        PTCLDY    64  58  80 SW5       30.05S
BLUE HILL        N/A     66  60  81 SW13      30.07F
NORWOOD        PTCLDY    67  61  81 SW3       30.06F
MARSHFIELD     PTCLDY    66  64  94 W5        30.08F
PLYMOUTH       PTCLDY    62  62 100 CALM      30.08F
TAUNTON        PTCLDY    63  61  93 SW3       30.07F
NEW BEDFORD    CLEAR     63  62  97 SW3       30.07F
$$

MAZALL-300900-
CAPE COD AND THE ISLANDS

CITY           SKY/WX    TMP DP  RH WIND       PRES   REMARKS
FALMOUTH       PTCLDY    68  64  88 W8        30.09S
HYANNIS        CLEAR     68  64  87 SW8       30.07S
CHATHAM        PTCLDY    69  63  81 VRB5      30.09F
PROVINCETOWN   PTCLDY    66  59  77 SW8       30.07F
NANTUCKET      PTCLDY    68  64  87 W7        30.10S
MARTHAS VNYRD  PTCLDY    67  63  87 SW5       30.09F
$$

MAZALL-300900-
CENTRAL AND WESTERN MASSACHUSETTS

CITY           SKY/WX    TMP DP  RH WIND       PRES   REMARKS
WORCESTER      CLEAR     63  58  83 W9        30.09F
FITCHBURG      CLEAR     60  56  86 CALM      30.07F
ORANGE         CLEAR     57  57 100 CALM      30.08S FOG
SPRINGFIELD    PTCLDY    60  58  95 NE2       30.06S
WESTFIELD      PTCLDY    62  60  93 CALM      30.07S
NORTH ADAMS    PTCLDY    56  55  97 CALM      30.09S
PITTSFIELD     MOCLDY    57  56  96 CALM      30.09S FOG
$$

RIZALL-300900-
RHODE ISLAND

CITY           SKY/WX    TMP DP  RH WIND       PRES   REMARKS
PROVIDENCE     CLEAR     68  63  84 W5        30.08F
NEWPORT        PTCLDY    70  65  84 VRB3      30.08F
BLOCK ISLAND   PTCLDY    70  66  88 W9        30.09F
SMITHFIELD     PTCLDY    63  61  94 S3        30.08F
WESTERLY       PTCLDY    62  60  93 CALM      30.09F
$$

CTZALL-300900-
CONNECTICUT

CITY           SKY/WX    TMP DP  RH WIND       PRES   REMARKS
BRADLEY INTL   PTCLDY    66  61  84 S3        30.06F
HARTFORD       CLEAR     67  63  87 CALM      30.06F
BRIDGEPORT     PTCLDY    74  64  71 SW9       30.07F
DANBURY        CLEAR     64  59  83 CALM      30.09F
GROTON         PTCLDY    70  67  90 CALM      30.08S
NEW HAVEN      PTCLDY    73  64  73 SW6       30.08S
CHESTER        NOT AVBL
MERIDEN        CLEAR     62  59  90 CALM      30.07F
WILLIMANTIC    PTCLDY    61  58  90 CALM      30.08F
OXFORD         CLEAR     64  57  77 S3        30.10S
$$

MEZ002-015-021-024-NHZ003-005-008-011-012-014-VTZ005-008-300900-
NORTHERN NEW ENGLAND

CITY           SKY/WX    TMP DP  RH WIND       PRES   REMARKS
PORTLAND ME    CLOUDY    65  61  87 CALM      30.03S
BANGOR ME      CLOUDY    62  59  90 SW3       30.03S
CONCORD NH     MOCLDY    62  58  86 CALM      30.05F
MANCHESTER NH  MOCLDY    65  57  75 CALM      30.04S
NASHUA NH      PTCLDY    61  58  90 S3        30.06S
PORTSMOUTH NH  CLOUDY    65  59  80 W7        30.03F
JAFFREY NH     PTCLDY    58  57  97 CALM      30.10R
KEENE NH       CLOUDY    57  54  88 CALM      30.09R
BURLINGTON VT  CLOUDY    64  60  87 E3        30.05S
MT. WASHINGTON PTCLDY    46  45  93 W31         N/A
$$

NYZ052-076-300900-
EASTERN NEW YORK

CITY           SKY/WX    TMP DP  RH WIND       PRES   REMARKS
ALBANY         MOCLDY    63  58  83 CALM      30.07S
NEW YORK CITY  MOCLDY    74  61  63 SW5       30.07F
$$

ANZALL-300900-
MARINE OBSERVATIONS

STATION/POSITION TIME  TEMP    WIND        PRES    VSBY  WAVE
                       AIR SEA DIR/SP/G                  HT/PER
                 (UTC) (F)     (DEG/KT/KT) (MB)    (MI)  (FT/S)
BOSTON BUOY      0750   69 70  240/  8/ 12 1018.1F         2/10
BUZZARDS BAY     0700          240/ 11/ 12 1019.9F
NANTUCKET SOUND  0750   73 73  250/ 14/ 16 1018.5F         1/ 3
MASS BAY-STELLWA 0704   70 69  230/ 12/ 14   N/A    1 7/8  3/11
ISLE OF SHOALS   0800   67     250/  9/ 10 1016.8F
S OF BLOCK IS    0708      74                N/A           3/10
$$

......................KEY.........................
  SKY/WX - SKY CONDITION/PRESENT WEATHER
  TMP    - TEMPERATURE IN FAHRENHEIT
  DWPT   - DEWPOINT IN FAHRENHEIT
  RH     - RELATIVE HUMIDITY IN PERCENT
  WIND   - DIRECTION AND SPEED IN MPH
  PRES   - MEAN SEA LEVEL PRESSURE IN INCHES OF HG
  WCI    - WIND CHILL INDEX
  VSB    - VISIBILITY IN MILES
  HX     - HEAT INDEX
  TC     - TEMPERATURE IN CELSIUS
  VRB    - VARIABLE WIND DIRECTION
  N/A    - NOT AVAILABLE


USA.gov is the U.S. government's official web portal to all federal, state and local government web resources and services.